Date_and_time,latitude,longitude,wind_speed,RelWindDirFrom,WindDirFrom,air_pressure,air_temperature,relative_humidity,Temp,platform_speed_wrt_ground,air_pressure_at_mean_sea_level,platform_orientation
2019-12-04 23:40,50.630445,-96.98077,1.9,2.9,187,982.29,-6.0,99,0.96,0.0,1010.54,18.5
2019-12-04 23:50,50.6304433333333,-96.9807683333333,2.1,2.9,158,982.14,-6.1,99,0.96,0.0,1010.40,18.5
2019-12-05 00:00,50.63041,-96.9807483333333,1.9,2.6,160,982.46,-6.1,99,0.96,0.0,1010.74,165.5
2019-12-05 00:10,50.6304533333333,-96.9807816666667,2.0,2.7,118,982.44,-5.4,99,0.96,0.0,1010.68,165.5
2019-12-05 00:20,50.6304483333333,-96.980775,2.5,3.8,111,982.32,-5.4,99,0.96,0.0,1010.58,165.5
2019-12-05 00:30,50.6304266666667,-96.9807733333333,3.9,4.9,90,982.10,-5.3,99,0.96,0.0,1010.37,165.5
2019-12-05 00:40,50.6304233333333,-96.98078,4.5,5.3,113,982.12,-5.1,99,0.97,0.0,1010.39,165.5
2019-12-05 00:50,50.630425,-96.9807783333333,4.6,6.1,120,982.14,-5.2,99,0.97,0.0,1010.42,165.5
2019-12-05 01:00,50.63045,-96.980775,6.1,7.7,130,982.05,-5.4,99,0.96,0.0,1010.34,360.0
2019-12-05 01:10,50.6304466666667,-96.9807666666667,6.3,7.4,128,982.02,-5.3,99,0.96,0.0,1010.31,360.0
2019-12-05 01:20,50.630445,-96.9807733333333,6.7,7.5,125,981.95,-5.3,99,0.96,0.0,1010.23,360.0
2019-12-05 01:30,50.6304466666667,-96.980775,6.3,7.8,127,982.03,-5.2,99,0.96,0.0,1010.32,360.0
2019-12-05 01:40,50.63044,-96.9807733333333,6.1,7.1,127,982.10,-5.1,99,0.96,0.0,1010.39,360.0
2019-12-05 01:50,50.630435,-96.9807733333333,6.4,7.8,141,982.04,-5.5,99,0.97,0.0,1010.35,360.0
2019-12-05 02:00,50.630435,-96.9807666666667,5.7,7.8,153,982.14,-5.8,99,0.98,0.0,1010.44,142.0
2019-12-05 02:10,50.6304333333333,-96.9807716666667,5.6,6.9,163,982.23,-5.8,99,0.99,0.0,1010.52,142.0
2019-12-05 02:20,50.6304333333333,-96.9807733333333,5.6,6.8,150,982.20,-5.8,99,0.99,0.0,1010.49,142.0
2019-12-05 02:30,50.6304333333333,-96.9807733333333,5.4,7.3,160,982.23,-5.8,99,0.99,0.0,1010.51,142.0
2019-12-05 02:40,50.6304366666667,-96.9807766666667,5.8,6.9,172,982.33,-5.7,99,1.00,0.0,1010.61,142.0
2019-12-05 02:50,50.6304366666667,-96.9807766666667,5.8,6.9,181,982.37,-5.8,99,0.99,0.0,1010.66,142.0
2019-12-05 03:00,50.6304366666667,-96.9807733333333,6.1,7.3,177,982.26,-5.9,99,0.98,0.0,1010.55,332.8
2019-12-05 03:10,50.6304383333333,-96.9807733333333,6.0,7.6,175,982.10,-5.9,99,0.98,0.0,1010.38,332.8
2019-12-05 03:20,50.6304383333333,-96.9807733333333,5.3,7.1,167,981.91,-5.8,99,0.97,0.0,1010.18,332.8
2019-12-05 03:30,50.630435,-96.98077,5.0,6.1,173,981.91,-5.6,99,0.96,0.0,1010.17,332.8
2019-12-05 03:40,50.630435,-96.9807666666667,5.1,5.9,174,981.91,-5.6,99,0.97,0.0,1010.19,332.8
2019-12-05 03:50,50.630435,-96.980775,5.2,6.1,173,981.83,-5.7,99,0.98,0.0,1010.13,332.8
2019-12-05 04:00,50.6304366666667,-96.9807866666667,5.4,6.6,172,981.80,-5.7,99,0.97,0.0,1010.09,211.1
2019-12-05 04:10,50.63044,-96.9807883333333,5.7,6.7,173,981.73,-5.5,99,0.97,0.0,1010.01,211.1
2019-12-05 04:20,50.63043,-96.9807566666667,6.9,8.9,169,981.53,-5.4,99,0.97,0.0,1009.80,211.1
2019-12-05 04:30,50.6304483333333,-96.9807483333333,7.5,8.6,176,981.49,-5.3,99,0.96,0.0,1009.75,211.1
2019-12-05 04:40,50.63046,-96.9807816666667,5.7,7.5,185,981.82,-5.3,99,0.96,0.0,1010.09,211.1
2019-12-05 04:50,50.6304366666667,-96.9807583333333,4.4,5.6,189,982.06,-5.2,99,0.96,0.0,1010.35,211.1
2019-12-05 05:00,50.6304133333333,-96.9807466666667,3.9,4.8,185,982.22,-5.1,99,0.96,0.0,1010.50,142.3
2019-12-05 05:10,50.630425,-96.98075,3.7,4.5,187,982.31,-5.1,99,0.96,0.0,1010.59,142.3
2019-12-05 05:20,50.630435,-96.9807666666667,3.7,4.2,179,982.32,-5.1,99,0.97,0.0,1010.59,142.3
2019-12-05 05:30,50.6304366666667,-96.98076,2.6,3.6,187,982.44,-5.0,99,0.98,0.0,1010.71,142.3
2019-12-05 05:40,50.6304366666667,-96.9807583333333,3.0,4.2,184,982.41,-5.0,99,0.97,0.0,1010.68,142.3
2019-12-05 05:50,50.63044,-96.9807583333333,4.2,4.9,172,982.24,-5.0,99,0.96,0.0,1010.50,142.3
2019-12-05 06:00,50.6304416666667,-96.9807616666667,4.2,5.0,173,982.25,-4.9,99,0.95,0.0,1010.50,60.8
2019-12-05 06:10,50.6304416666667,-96.9807616666667,4.6,5.4,176,982.14,-4.8,99,0.94,0.0,1010.38,60.8
2019-12-05 06:20,50.6304416666667,-96.9807633333333,4.6,5.8,176,982.16,-4.7,99,0.94,0.0,1010.38,60.8
2019-12-05 06:30,50.63044,-96.980765,5.2,6.5,180,982.11,-4.7,99,0.94,0.0,1010.33,60.8
2019-12-05 06:40,50.63044,-96.9807666666667,3.9,5.0,214,982.33,-4.5,99,0.95,0.0,1010.55,60.8
2019-12-05 06:50,50.630425,-96.980745,2.9,4.6,233,982.47,-4.2,99,0.97,0.0,1010.67,60.8
2019-12-05 07:00,50.6304366666667,-96.9807633333333,3.6,4.5,215,982.40,-4.0,99,0.97,0.0,1010.59,90.0
2019-12-05 07:10,50.6304383333333,-96.9807766666667,2.5,3.4,234,982.50,-4.0,99,0.97,0.0,1010.68,90.0
2019-12-05 07:20,50.63043,-96.980775,2.6,3.3,231,982.66,-4.0,99,0.97,0.0,1010.85,90.0
2019-12-05 07:30,50.6304366666667,-96.980785,2.7,3.6,263,982.76,-3.9,99,0.96,0.0,1010.94,90.0
2019-12-05 07:40,50.6304366666667,-96.9807833333333,2.6,3.8,254,982.66,-3.8,99,0.96,0.0,1010.84,90.0
2019-12-05 07:50,50.63044,-96.9807816666667,2.7,3.6,247,982.52,-3.9,99,0.96,0.0,1010.69,90.0
2019-12-05 08:00,50.6304383333333,-96.9807783333333,3.3,4.7,269,982.58,-3.8,99,0.96,0.0,1010.75,315.5
2019-12-05 08:10,50.6304383333333,-96.9807766666667,3.2,4.7,269,982.66,-3.6,99,0.95,0.0,1010.82,315.5
2019-12-05 08:20,50.63044,-96.980775,3.8,5.4,269,982.80,-3.5,99,0.95,0.0,1010.95,315.5
2019-12-05 08:30,50.63044,-96.980775,4.2,5.7,271,982.93,-3.6,99,0.95,0.0,1011.07,315.5
2019-12-05 08:40,50.630445,-96.9807516666667,4.4,6.0,272,983.04,-3.5,99,0.95,0.0,1011.17,315.5
2019-12-05 08:50,50.63044,-96.9807583333333,4.1,5.8,272,983.17,-3.5,99,0.96,0.0,1011.29,315.5
2019-12-05 09:00,50.6304416666667,-96.9807633333333,4.5,5.9,280,983.16,-3.6,99,0.98,0.0,1011.28,270.0
2019-12-05 09:10,50.6304433333333,-96.9807633333333,4.5,6.2,284,983.19,-3.6,99,0.98,0.0,1011.32,270.0
2019-12-05 09:20,50.63044,-96.9807533333333,4.8,6.3,289,983.24,-3.6,99,0.98,0.0,1011.37,270.0
2019-12-05 09:30,50.630475,-96.980785,4.6,6.5,291,983.33,-3.6,99,0.98,0.0,1011.45,270.0
2019-12-05 09:40,50.6304616666667,-96.9807766666667,5.2,8.0,300,983.39,-3.6,99,0.97,0.0,1011.51,270.0
2019-12-05 09:50,50.6304566666667,-96.9807766666667,5.9,8.0,305,983.54,-3.6,99,0.97,0.0,1011.66,270.0
2019-12-05 10:00,50.630455,-96.9807733333333,6.2,8.9,313,983.61,-3.6,99,0.97,0.0,1011.73,336.5
2019-12-05 10:10,50.6304566666667,-96.9807733333333,5.7,7.3,312,983.60,-3.7,99,0.97,0.0,1011.72,336.5
2019-12-05 10:20,50.6304583333333,-96.9807733333333,5.4,8.1,318,983.57,-3.7,99,0.98,0.0,1011.70,336.5
2019-12-05 10:30,50.6304566666667,-96.9807733333333,5.9,8.5,317,983.68,-3.7,99,0.97,0.0,1011.80,336.5
2019-12-05 10:40,50.6304433333333,-96.98077,6.5,9.8,311,983.84,-3.8,99,0.97,0.0,1011.97,336.5
2019-12-05 10:50,50.6304616666667,-96.9807916666667,7.5,10.9,312,983.87,-3.8,99,0.98,0.0,1012.00,336.5
2019-12-05 11:00,50.63045,-96.9807666666667,7.1,10.9,317,984.02,-3.8,99,0.97,0.0,1012.16,49.4
2019-12-05 11:10,50.63046,-96.98077,9.0,13.7,324,984.09,-3.8,99,0.97,0.0,1012.23,49.4
2019-12-05 11:20,50.6304533333333,-96.9807633333333,7.9,11.7,326,984.19,-3.8,99,0.96,0.0,1012.33,49.4
2019-12-05 11:30,50.630445,-96.9807633333333,9.1,13.2,329,984.39,-3.8,99,0.96,0.0,1012.54,49.4
2019-12-05 11:40,50.6304416666667,-96.9807666666667,10.6,15.3,330,984.39,-3.8,99,0.95,0.0,1012.54,49.4
2019-12-05 11:50,50.6304316666667,-96.9808,10.2,18.2,330,984.56,-4.0,99,0.94,0.0,1012.73,49.4
2019-12-05 12:00,50.63043,-96.9807766666667,10.8,16.9,322,984.65,-4.3,99,0.94,0.0,1012.84,203.5
2019-12-05 12:10,50.63043,-96.98078,10.1,15.7,326,984.74,-4.6,99,0.94,0.0,1012.95,203.5
2019-12-05 12:20,50.6304333333333,-96.9807816666667,9.2,15.0,330,984.98,-4.7,99,0.93,0.0,1013.21,203.5
2019-12-05 12:30,50.630435,-96.9807733333333,9.0,14.3,328,985.10,-4.9,99,0.93,0.0,1013.34,203.5
2019-12-05 12:40,50.6304366666667,-96.98077,9.3,13.7,327,985.23,-5.1,99,0.94,0.0,1013.48,203.5
2019-12-05 12:50,50.6304383333333,-96.9807566666667,9.7,14.9,324,985.39,-5.2,99,0.96,0.0,1013.65,203.5
2019-12-05 13:00,50.6304433333333,-96.98077,8.0,13.0,333,985.51,-5.1,99,0.96,0.0,1013.77,165.5
2019-12-05 13:10,50.630445,-96.9807716666667,11.1,18.2,328,985.57,-5.3,98,0.97,0.0,1013.84,165.5
2019-12-05 13:20,50.6304466666667,-96.9807716666667,10.9,16.1,340,985.77,-5.4,93,0.98,0.0,1014.06,165.5
2019-12-05 13:30,50.6304333333333,-96.9807666666667,10.7,14.1,339,985.87,-5.5,88,0.98,0.0,1014.17,165.5
2019-12-05 13:40,50.630425,-96.9807716666667,10.5,16.7,329,986.12,-5.6,85,0.99,0.0,1014.44,165.5
2019-12-05 13:50,50.63043,-96.9807733333333,10.5,16.5,334,986.24,-5.8,81,0.98,0.0,1014.59,165.5
2019-12-05 14:00,50.6304333333333,-96.98077,10.5,16.5,330,986.46,-5.9,78,0.97,0.0,1014.84,360.0
2019-12-05 14:10,50.6304366666667,-96.98077,12.5,18.2,329,986.65,-6.0,77,0.97,0.0,1015.05,360.0
2019-12-05 14:20,50.6304366666667,-96.9807666666667,12.8,19.2,334,986.78,-6.2,77,0.97,0.0,1015.19,360.0
2019-12-05 14:30,50.630435,-96.9807633333333,10.5,15.4,335,987.02,-6.3,79,0.97,0.0,1015.45,360.0
2019-12-05 14:40,50.6304366666667,-96.9807666666667,9.3,13.7,331,987.24,-6.3,80,0.97,0.0,1015.69,360.0
2019-12-05 14:50,50.6304366666667,-96.980765,9.0,12.9,337,987.43,-6.4,80,0.98,0.0,1015.89,360.0
2019-12-05 15:00,50.630435,-96.98079,9.8,14.9,335,987.57,-6.3,79,0.98,0.0,1016.04,310.6
2019-12-05 15:10,50.6304383333333,-96.9807816666667,10.0,13.7,335,987.79,-6.4,79,0.98,0.0,1016.27,310.6
2019-12-05 15:20,50.6304333333333,-96.980785,11.0,15.0,333,987.92,-6.4,80,0.97,0.0,1016.42,310.6
2019-12-05 15:30,50.6304333333333,-96.9807766666667,9.6,12.7,330,988.19,-6.4,81,0.97,0.0,1016.70,310.6
2019-12-05 15:40,50.6304316666667,-96.9807716666667,8.8,13.9,323,988.44,-6.5,83,0.97,0.0,1016.97,310.6
2019-12-05 15:50,50.630435,-96.98077,8.6,14.0,321,988.67,-6.6,86,0.96,0.0,1017.22,310.6
2019-12-05 16:00,50.630435,-96.9807683333333,7.9,11.9,316,988.80,-6.6,86,0.95,0.0,1017.36,142.0
2019-12-05 16:10,50.6304383333333,-96.9807683333333,8.4,12.1,318,988.96,-6.6,85,0.94,0.0,1017.53,142.0
2019-12-05 16:20,50.6304266666667,-96.98077,9.2,14.5,314,989.23,-6.5,83,0.94,0.0,1017.81,142.0
2019-12-05 16:30,50.63044,-96.9807683333333,10.0,14.8,323,989.45,-6.4,81,0.94,0.0,1018.03,142.0
2019-12-05 16:40,50.6304416666667,-96.9807666666667,11.0,16.0,328,989.55,-6.1,80,0.94,0.0,1018.12,142.0
2019-12-05 16:50,50.6304433333333,-96.98076,9.9,16.3,318,989.78,-6.1,81,0.94,0.0,1018.35,142.0
2019-12-05 17:00,50.6304433333333,-96.9807633333333,11.2,16.3,315,989.86,-6.4,82,0.93,0.0,1018.45,38.0
2019-12-05 17:10,50.630445,-96.980765,10.9,15.1,328,989.95,-6.4,82,0.93,0.0,1018.55,38.0
2019-12-05 17:20,50.630445,-96.980765,11.3,17.6,324,989.96,-6.4,81,0.92,0.0,1018.57,38.0
2019-12-05 17:30,50.6304433333333,-96.9807866666667,11.3,15.7,329,990.01,-6.2,77,0.92,0.0,1018.61,38.0
2019-12-05 17:40,50.6304383333333,-96.9807683333333,10.0,14.5,325,990.14,-6.3,76,0.92,0.0,1018.75,38.0
2019-12-05 17:50,50.6304366666667,-96.980765,11.5,15.3,338,990.16,-6.5,78,0.93,0.0,1018.79,38.0
2019-12-05 18:00,50.6304383333333,-96.9807633333333,12.5,17.7,326,990.14,-7.0,79,0.93,0.0,1018.79,72.3
2019-12-05 18:10,50.63044,-96.9807633333333,12.4,17.8,330,990.31,-7.2,80,0.93,0.0,1018.98,72.3
2019-12-05 18:20,50.63044,-96.980765,11.1,17.0,321,990.60,-7.4,81,0.93,0.0,1019.27,72.3
2019-12-05 18:30,50.6304416666667,-96.9807666666667,10.9,15.9,327,990.79,-7.6,80,0.93,0.0,1019.47,72.3
2019-12-05 18:40,50.6304616666667,-96.9807533333333,11.3,18.9,330,990.86,-7.8,80,0.93,0.0,1019.55,72.3
2019-12-05 18:50,50.6304233333333,-96.980785,12.9,18.3,325,990.86,-8.0,79,0.93,0.0,1019.57,72.3
2019-12-05 19:00,50.63045,-96.98077,12.0,18.5,329,990.93,-8.1,78,0.94,0.0,1019.65,360.0
2019-12-05 19:10,50.6304416666667,-96.9807716666667,11.1,15.6,337,991.01,-8.0,79,0.95,0.0,1019.73,360.0
2019-12-05 19:20,50.63043,-96.9807733333333,10.8,15.9,328,991.01,-8.2,79,0.95,0.0,1019.73,360.0
2019-12-05 19:30,50.6304283333333,-96.9807533333333,11.9,17.4,329,991.09,-8.3,77,0.95,0.0,1019.82,360.0
2019-12-05 19:40,50.6304333333333,-96.98076,10.3,16.5,326,991.33,-8.4,77,0.96,0.0,1020.08,360.0
2019-12-05 19:50,50.6304333333333,-96.9807616666667,10.8,15.5,324,991.41,-8.5,79,0.95,0.0,1020.20,360.0
2019-12-05 20:00,50.630435,-96.980765,11.6,16.2,322,991.47,-8.6,73,0.96,0.0,1020.28,142.0
2019-12-05 20:10,50.630435,-96.980765,11.4,15.7,331,991.66,-8.7,77,0.95,0.0,1020.49,142.0
2019-12-05 20:20,50.6304366666667,-96.980765,10.6,18.1,331,991.88,-8.8,77,0.94,0.0,1020.73,142.0
2019-12-05 20:30,50.6304383333333,-96.9807716666667,11.8,17.0,328,991.98,-9.0,75,0.94,0.0,1020.86,142.0
2019-12-05 20:40,50.630435,-96.98077,11.1,16.8,328,992.23,-9.1,74,0.94,0.0,1021.13,142.0
2019-12-05 20:50,50.6304233333333,-96.9807716666667,11.1,15.7,327,992.42,-9.2,75,0.94,0.0,1021.34,142.0
2019-12-05 21:00,50.63043,-96.9807766666667,9.2,14.5,333,992.69,-9.2,74,0.94,0.0,1021.61,360.0
2019-12-05 21:10,50.6304316666667,-96.9807683333333,9.6,14.7,332,992.93,-9.2,73,0.94,0.0,1021.88,360.0
2019-12-05 21:20,50.6304316666667,-96.98077,9.9,14.0,335,993.14,-9.3,77,0.93,0.0,1022.10,360.0
2019-12-05 21:30,50.630435,-96.9807716666667,9.3,12.8,333,993.33,-9.6,78,0.93,0.0,1022.31,360.0
2019-12-05 21:40,50.6304366666667,-96.9807733333333,8.2,13.2,330,993.53,-9.7,75,0.93,0.0,1022.53,360.0
2019-12-05 21:50,50.6304366666667,-96.9807733333333,9.0,13.6,338,993.66,-9.6,74,0.93,0.0,1022.67,360.0
2019-12-05 22:00,50.6304383333333,-96.9807733333333,8.6,11.3,353,993.85,-9.8,77,0.93,0.0,1022.88,194.5
2019-12-05 22:10,50.6304383333333,-96.9807733333333,8.9,11.3,346,994.00,-9.9,76,0.93,0.0,1023.04,194.5
2019-12-05 22:20,50.63044,-96.980775,7.7,10.5,337,994.21,-9.9,75,0.94,0.0,1023.27,194.5
2019-12-05 22:30,50.63044,-96.980775,10.8,15.5,351,994.30,-10.0,75,0.94,0.0,1023.37,194.5
2019-12-05 22:40,50.63044,-96.9807766666667,7.7,12.2,336,994.53,-10.0,75,0.94,0.0,1023.63,194.5
2019-12-05 22:50,50.63044,-96.980775,9.5,14.2,332,994.71,-10.2,74,0.94,0.0,1023.81,194.5
2019-12-05 23:00,50.63044,-96.980775,10.4,15.0,341,994.88,-10.2,74,0.94,0.0,1024.00,347.4
2019-12-05 23:10,50.630455,-96.9807616666667,9.5,14.4,337,995.04,-10.4,74,0.93,0.0,1024.17,347.4
2019-12-05 23:20,50.6304433333333,-96.9807566666667,10.4,14.2,344,995.04,-10.5,74,0.93,0.0,1024.20,347.4
2019-12-05 23:30,50.6304366666667,-96.9807583333333,10.3,13.9,346,995.19,-10.6,74,0.93,0.0,1024.36,347.4
2019-12-05 23:40,50.6304333333333,-96.9807616666667,9.7,13.6,346,995.27,-10.7,74,0.93,0.0,1024.44,347.4
2019-12-05 23:50,50.63043,-96.9807616666667,9.3,12.8,345,995.40,-10.7,74,0.93,0.0,1024.59,347.4
